Temperature
3 3 3 3 3 3 3 3 3 3 3 2 2 2 2 2 2 2 2 2 2 2 2 2 2 2 1 1 1 1 1 1 1 1 2 2 2 2 2 2 3 3 3
3 3 2 2 2 2 3 2 2 2 2 2 2 2 2 2 2 2 2 2 1 1 1 1 1 1 1 1 1 1 1 1 1 1 1 1 1 2 2 2 2 2 2
3 2 2 2 2 2 2 2 2 2 2 2 1 1 1 1 1 1 1 1 1 1 1 1 1 1 1 1 1 1 1 1 1 1 1 1 1 1 1 2 2 2 2
2 2 2 2 2 2 2 2 2 2 1 1 1 1 1 1 1 1 1 1 1 1 1 1 0 0 0 0 0 0 0 0 0 0 0 0 1 1 1 1 1 1 2
2 2 2 2 1 1 1 1 1 1 1 1 1 1 1 1 1 1 1 0 0 0 0 0 0 0 0 -0 -0 0 0 0 0 -0 -0 -0 -0 0 0 0 0 1 1
2 1 1 1 1 1 1 1 1 1 1 1 1 1 0 0 0 0 0 0 0 0 0 0 -0 -0 -0 -0 -0 -0 -0 -0 -0 -0 -1 -1 -1 -0 -0 -0 -0 -0 0
1 1 1 1 1 1 1 1 1 1 1 0 0 0 0 0 -0 -0 -0 -0 -0 -0 -0 -0 -0 -0 -0 -1 -0 -0 -0 -0 -1 -1 -1 -1 -1 -1 -1 -1 -1 -0 -0
1 1 1 1 1 0 0 0 0 0 0 -0 -0 -0 -0 -0 -1 -1 -1 -1 -1 -1 -1 -1 -1 -1 -1 -1 -1 -1 -1 -1 -1 -1 -1 -1 -1 -1 -1 -1 -1 -1 -0
1 1 1 0 0 0 0 0 -0 -0 -0 -1 -1 -1 -1 -1 -1 -1 -1 -1 -1 -1 -1 -1 -1 -1 -1 -1 -1 -1 -1 -1 -1 -1 -2 -2 -1 -1 -1 -1 -1 -1 -1
0 0 0 0 0 0 -0 -0 -1 -1 -1 -1 -1 -1 -1 -1 -1 -1 -2 -2 -2 -2 -2 -2 -2 -2 -2 -2 -2 -2 -2 -2 -2 -2 -1 -1 -1 -1 -1 -1 -1 -1 -1
0 0 0 -0 -0 -0 -1 -1 -1 -1 -1 -1 -1 -1 -2 -2 -2 -2 -2 -2 -2 -2 -2 -2 -2 -2 -2 -2 -2 -2 -2 -2 -2 -2 -2 -2 -1 -1 -1 -1 -2 -2 -2
-0 -0 -0 -0 -1 -1 -1 -1 -1 -1 -2 -2 -2 -2 -2 -2 -2 -2 -3 -3 -3 -3 -3 -2 -2 -2 -3 -3 -3 -3 -3 -3 -3 -3 -2 -2 -2 -2 -2 -2 -2 -2 -2
-0 -1 -1 -1 -1 -1 -1 -1 -2 -2 -2 -2 -2 -2 -2 -2 -3 -3 -3 -3 -3 -3 -3 -3 -3 -3 -3 -3 -3 -3 -3 -3 -3 -3 -3 -3 -3 -2 -2 -2 -2 -2 -2
-1 -1 -1 -1 -1 -1 -1 -2 -2 -2 -2 -2 -2 -3 -3 -3 -3 -3 -3 -3 -3 -3 -3 -3 -3 -3 -3 -3 -3 -3 -3 -3 -3 -3 -3 -3 -3 -3 -3 -3 -2 -2 -2
-1 -1 -1 -1 -1 -1 -2 -2 -2 -2 -2 -2 -3 -3 -3 -3 -3 -3 -3 -3 -3 -4 -4 -4 -3 -4 -4 -4 -4 -4 -4 -4 -4 -3 -3 -3 -3 -3 -3 -3 -3 -3 -3
-1 -1 -1 -1 -2 -2 -2 -2 -2 -2 -2 -3 -3 -3 -3 -3 -3 -3 -4 -4 -4 -4 -4 -4 -4 -4 -4 -4 -4 -4 -4 -4 -4 -4 -4 -4 -4 -4 -3 -3 -3 -3 -3
-1 -1 -1 -1 -2 -2 -2 -2 -2 -2 -3 -3 -3 -3 -3 -3 -3 -4 -4 -4 -4 -4 -4 -4 -4 -4 -4 -4 -4 -4 -4 -4 -4 -4 -4 -4 -4 -4 -4 -4 -4 -4 -4
-1 -2 -2 -2 -2 -2 -2 -3 -3 -3 -3 -3 -3 -3 -3 -4 -4 -4 -4 -4 -4 -4 -4 -5 -5 -5 -5 -5 -5 -5 -5 -5 -4 -4 -4 -4 -4 -4 -4 -4 -4 -4 -4
-2 -2 -2 -2 -2 -2 -3 -3 -3 -3 -3 -3 -3 -3 -4 -4 -4 -4 -4 -4 -4 -5 -5 -5 -5 -5 -5 -5 -5 -5 -5 -5 -5 -5 -5 -4 -4 -4 -4 -4 -4 -4 -4
-2 -2 -2 -2 -2 -3 -3 -3 -3 -3 -3 -3 -4 -4 -4 -4 -4 -4 -4 -4 -5 -5 -5 -5 -5 -5 -5 -5 -5 -5 -5 -5 -5 -5 -5 -5 -5 -5 -5 -5 -5 -5 -4
-2 -2 -2 -2 -3 -3 -3 -3 -3 -3 -4 -4 -4 -4 -4 -4 -4 -4 -5 -5 -5 -5 -5 -5 -5 -5 -5 -5 -5 -5 -5 -5 -5 -5 -5 -5 -5 -5 -5 -5 -5 -5 -5
-2 -2 -3 -3 -3 -3 -3 -3 -4 -4 -4 -4 -4 -4 -4 -5 -5 -5 -5 -5 -5 -5 -5 -5 -5 -5 -5 -5 -5 -5 -5 -5 -5 -5 -5 -5 -5 -5 -5 -5 -5 -5 -5
-3 -3 -3 -3 -3 -3 -3 -4 -4 -4 -4 -4 -4 -5 -5 -5 -5 -5 -5 -5 -5 -5 -5 -5 -5 -5 -5 -5 -5 -5 -5 -5 -5 -5 -5 -5 -5 -5 -5 -5 -5 -5 -5
-3 -3 -3 -3 -3 -4 -4 -4 -4 -4 -4 -4 -5 -5 -5 -5 -5 -5 -5 -5 -5 -5 -5 -5 -5 -5 -5 -5 -5 -5 -5 -5 -5 -5 -5 -5 -5 -5 -6 -5 -5 -5 -5
-3 -3 -3 -4 -4 -4 -4 -4 -4 -4 -5 -5 -5 -5 -5 -5 -5 -5 -5 -5 -5 -5 -5 -5 -5 -5 -5 -5 -5 -5 -5 -5 -5 -6 -6 -6 -6 -6 -6 -6 -5 -5 -5
-4 -4 -4 -4 -4 -4 -4 -4 -5 -5 -5 -5 -5 -5 -5 -5 -5 -5 -5 -5 -5 -5 -5 -5 -5 -6 -5 -5 -5 -5 -5 -5 -6 -6 -6 -6 -6 -6 -6 -6 -5 -5 -5
Wind_Speed
4 4 3 3 3 3 3 3 3 3 3 3 3 3 3 3 2 2 2 3 4 4 3 3 4 4 4 3 3 3 3 3 5 4 3 3 3 4 4 4 4 4 5
4 4 4 3 3 3 3 3 3 3 3 3 3 3 3 3 2 3 3 3 4 4 4 4 5 4 5 4 3 4 4 4 4 5 4 3 3 3 3 4 3 4 4
3 4 3 3 3 4 4 3 3 3 3 3 3 3 3 3 3 3 4 4 4 4 4 5 5 5 5 4 4 4 4 4 3 4 4 3 3 2 3 3 3 3 3
4 4 4 5 5 5 4 3 3 3 3 3 3 3 3 3 3 3 3 4 4 4 4 4 5 6 6 6 5 5 4 3 3 3 3 3 2 3 2 3 3 2 3
4 5 5 5 4 4 3 3 3 3 3 3 3 3 3 3 3 3 3 3 3 3 3 4 4 5 5 4 4 4 4 3 3 3 3 3 2 2 2 2 3 3 3
4 5 5 4 4 4 3 3 3 3 3 2 3 3 3 3 4 4 3 3 3 3 4 4 4 4 4 5 5 4 3 4 3 3 3 3 3 2 2 3 2 2 3
4 5 4 4 4 4 4 4 4 3 3 3 3 3 4 4 5 5 4 3 3 3 4 3 3 2 3 3 3 3 3 5 4 3 4 4 4 3 3 3 2 2 3
4 4 4 4 4 4 4 4 4 3 3 3 3 3 3 4 5 5 4 3 3 3 3 3 3 3 3 2 1 1 2 3 4 3 4 4 4 3 3 4 3 2 2
4 4 4 4 5 4 4 4 3 3 3 3 3 3 3 4 4 4 3 2 2 3 3 3 3 3 3 2 1 1 2 2 3 4 4 4 4 5 3 1 1 1 2
5 5 4 4 4 4 4 4 3 3 3 3 3 3 3 4 4 4 3 2 2 2 3 3 3 3 3 2 2 2 3 2 2 2 2 3 3 3 4 2 3 2 1
4 3 3 4 4 4 3 2 2 2 2 2 3 2 3 4 4 4 4 2 2 2 3 2 3 3 3 3 2 2 3 2 1 1 1 1 1 2 2 2 2 3 3
3 3 3 3 3 3 3 2 2 3 3 2 2 2 2 3 4 4 5 4 3 3 3 2 2 3 2 2 2 2 2 1 1 1 1 1 2 2 2 2 2 1 2
3 3 3 3 2 2 3 3 2 2 2 2 2 3 2 2 3 5 5 4 4 3 2 3 2 2 2 2 2 2 1 1 1 1 1 2 2 2 2 2 2 1 2
3 3 3 2 2 2 2 2 3 3 3 3 3 3 2 2 3 2 2 3 3 3 2 2 2 1 0 1 1 2 1 1 1 1 1 1 1 1 1 1 2 1 2
3 3 3 2 2 2 2 3 3 4 4 4 4 3 3 3 4 4 2 2 2 2 1 1 1 1 0 0 1 1 1 1 1 1 1 1 1 1 2 1 1 2 2
3 3 2 2 2 2 2 2 3 3 4 5 4 4 3 4 4 4 4 3 2 2 2 1 1 1 1 1 1 1 1 2 2 2 1 1 2 2 2 2 2 2 2
4 3 3 3 3 3 2 2 2 2 3 3 3 4 4 4 4 4 4 3 3 3 2 1 2 2 2 2 2 2 2 2 2 2 2 2 2 2 2 2 2 2 2
3 3 3 3 3 3 3 3 2 2 2 2 3 4 4 4 3 2 3 2 2 2 1 2 2 2 2 2 2 2 2 2 2 2 2 2 2 2 1 2 2 2 2
3 2 2 2 3 3 3 2 2 2 2 2 1 2 3 3 3 2 2 2 2 2 2 2 2 2 2 2 2 2 2 2 2 2 2 2 2 2 2 2 2 3 2
2 3 2 2 2 3 3 3 2 3 3 2 2 2 1 1 1 1 2 2 2 2 2 2 2 2 2 2 2 2 2 2 2 2 2 2 2 2 2 3 2 2 2
2 2 3 2 2 3 3 3 3 2 2 2 2 3 3 2 2 2 2 2 2 3 3 3 2 3 3 2 2 3 3 3 3 3 3 3 2 2 2 2 2 2 2
2 2 2 2 2 2 2 2 2 2 2 2 1 2 3 2 2 2 2 2 2 2 3 3 2 3 3 3 3 3 3 3 3 3 3 3 2 2 2 2 2 2 2
2 2 2 1 1 2 1 1 2 2 2 2 1 1 1 1 1 2 2 2 1 1 2 2 2 2 3 3 4 4 4 4 4 4 3 3 2 2 2 2 2 2 2
2 2 2 2 1 1 1 1 2 2 2 2 2 2 2 2 2 2 2 2 1 1 2 2 3 3 4 3 3 4 4 4 4 4 4 3 2 2 2 2 2 2 2
2 2 2 2 2 1 1 1 2 2 2 2 2 1 1 1 1 1 1 1 1 1 2 2 2 3 4 4 3 4 4 5 4 3 3 3 3 3 2 2 2 2 2
2 2 2 2 2 2 2 2 1 1 2 1 1 1 1 1 1 1 1 1 1 1 1 1 2 2 3 3 3 4 4 4 3 3 2 2 3 3 2 2 2 2 1
Wind_Direction
205 210 215 222 222 223 223 230 240 244 235 232 236 240 238 239 239 235 242 234 226 234 240 236 244 247 240 237 237 239 242 239 254 275 272 282 288 291 306 300 296 293 291
207 207 215 221 220 226 234 236 241 242 234 234 232 236 240 238 233 233 242 243 233 230 235 238 246 247 237 236 235 240 247 245 240 262 275 275 276 277 290 291 304 299 288
207 211 222 228 227 233 240 244 242 238 236 239 235 236 245 245 239 232 235 242 237 237 232 233 240 243 238 238 236 236 241 245 237 244 267 270 274 276 296 298 298 295 297
209 212 223 229 227 231 237 239 240 228 223 230 237 239 242 246 246 241 242 244 249 246 240 239 238 239 233 230 232 231 232 235 237 243 259 270 273 270 277 288 305 311 303
214 218 227 230 226 230 234 239 242 230 228 228 235 248 251 249 246 245 243 241 250 259 256 250 249 250 240 237 238 224 217 223 231 242 254 269 271 266 274 279 284 303 303
220 225 228 226 223 228 233 242 236 231 231 229 234 238 250 258 263 253 238 239 247 251 258 262 258 247 249 253 256 250 229 222 225 237 247 250 259 262 273 279 282 300 300
227 228 225 219 220 224 229 232 226 225 224 229 236 236 246 258 261 254 250 246 247 248 248 256 264 258 253 241 261 279 266 257 247 233 231 245 251 249 251 269 264 270 270
224 225 221 215 222 225 220 224 228 224 223 228 238 244 254 261 264 264 260 254 255 256 250 244 245 252 246 227 212 264 278 268 264 251 238 249 254 248 239 250 251 279 289
221 223 222 218 222 220 220 225 228 225 234 235 234 235 247 265 267 265 260 253 254 262 265 248 231 229 254 256 213 242 280 282 287 279 278 281 288 286 278 274 264 263 298
223 221 217 211 211 216 220 227 229 227 232 231 238 235 241 257 267 259 247 237 254 263 261 244 234 236 247 254 218 216 248 273 285 300 295 294 283 276 276 239 222 229 258
218 213 214 211 212 212 213 213 217 223 227 227 235 243 246 253 259 255 249 226 235 254 242 237 235 242 247 247 250 238 253 271 256 262 278 290 295 285 282 262 229 217 229
202 209 220 217 214 206 197 209 211 207 215 225 231 251 251 254 258 257 254 253 259 253 240 233 226 232 240 246 255 279 300 308 251 265 276 284 290 286 287 290 278 257 248
201 215 224 223 220 207 201 207 212 203 208 227 228 242 257 258 260 258 256 261 258 257 246 231 222 223 231 244 273 306 315 307 274 269 278 283 281 275 285 303 329 346 342
207 219 221 214 221 210 203 206 210 213 216 224 226 236 249 257 256 251 253 251 246 252 246 219 202 189 110 11 323 313 315 290 269 269 286 287 295 298 305 308 304 320 336
213 217 216 213 213 207 215 224 225 228 221 219 221 223 228 241 252 260 251 236 224 222 177 132 115 119 166 254 281 290 298 302 303 297 285 294 298 307 311 310 305 314 301
212 215 212 211 207 206 216 266 268 248 246 246 233 232 241 247 260 254 247 237 228 187 153 158 189 200 215 234 247 264 266 275 282 287 286 287 289 292 301 309 305 304 296
211 214 208 204 205 209 211 216 255 286 262 253 247 245 246 251 256 247 226 210 200 171 165 184 209 218 221 231 242 246 254 262 263 271 282 282 285 286 286 297 305 304 297
214 216 212 204 202 202 207 215 218 227 255 274 266 254 251 248 248 239 211 192 200 191 185 200 217 223 224 229 238 250 264 277 276 277 277 281 277 282 285 286 286 283 288
211 215 215 201 197 202 209 213 217 226 238 252 268 267 254 246 234 228 200 189 202 210 210 211 217 215 221 226 231 236 244 261 272 267 269 272 268 267 275 277 281 289 288
215 223 207 198 198 201 207 210 215 222 230 230 233 239 239 229 218 237 226 211 212 214 213 215 220 218 214 219 227 229 236 247 256 260 263 270 268 264 271 280 280 281 286
208 213 205 198 205 208 208 211 212 214 224 233 241 240 227 218 225 232 233 225 220 216 214 215 218 218 213 217 226 226 229 235 241 251 257 262 262 263 269 275 278 281 290
197 204 208 210 210 209 211 208 205 210 220 229 246 255 236 224 225 232 237 239 234 223 211 208 218 221 215 219 223 224 229 229 232 239 249 252 254 264 267 270 277 283 283
184 189 200 212 207 217 221 213 205 207 220 226 222 229 230 224 224 230 244 251 238 226 220 212 218 226 232 232 224 222 226 232 230 230 236 239 241 249 253 257 257 261 265
177 183 189 195 201 202 208 222 220 215 217 222 223 225 224 223 232 244 251 258 249 240 233 227 226 231 237 239 236 236 237 241 234 222 222 224 230 238 245 253 262 265 259
171 176 181 190 196 204 218 226 226 220 219 221 222 225 226 224 234 247 252 252 248 241 246 248 244 240 237 237 240 242 243 248 245 221 202 206 216 222 228 242 253 264 268
165 169 176 182 189 197 206 221 230 233 235 240 231 224 225 226 232 243 251 248 251 254 258 261 255 253 252 248 241 243 247 247 234 219 196 194 210 216 216 233 244 248 252
Height
1447 1447 1448 1447 1447 1447 1447 1447 1447 1447 1446 1446 1446 1445 1445 1444 1444 1443 1443 1443 1444 1444 1444 1444 1444 1445 1445 1445 1445 1445 1445 1445 1442 1441 1441 1441 1440 1440 1439 1438 1437 1436 1435
1444 1444 1444 1444 1444 1444 1444 1444 1444 1443 1443 1443 1443 1442 1441 1441 1440 1440 1440 1439 1439 1440 1440 1440 1440 1441 1441 1441 1441 1441 1441 1440 1439 1437 1437 1437 1437 1436 1435 1434 1433 1433 1432
1440 1440 1440 1440 1440 1440 1440 1440 1440 1440 1440 1440 1439 1438 1438 1437 1437 1437 1436 1436 1436 1436 1436 1436 1436 1436 1436 1437 1437 1437 1437 1437 1436 1434 1433 1433 1433 1432 1431 1431 1430 1429 1429
1436 1436 1436 1436 1436 1436 1436 1437 1436 1436 1436 1436 1436 1435 1435 1434 1433 1433 1433 1432 1432 1432 1432 1432 1432 1432 1432 1433 1433 1433 1433 1432 1431 1431 1429 1429 1429 1429 1428 1427 1426 1426 1426
1432 1432 1432 1433 1433 1433 1433 1433 1433 1433 1433 1433 1432 1432 1432 1431 1430 1430 1429 1429 1429 1429 1429 1429 1429 1429 1429 1429 1429 1429 1429 1428 1427 1427 1426 1425 1425 1425 1425 1424 1424 1422 1422
1428 1428 1429 1429 1429 1429 1429 1429 1429 1429 1429 1429 1429 1428 1428 1428 1428 1427 1427 1426 1426 1425 1425 1425 1425 1425 1425 1426 1425 1425 1425 1424 1423 1423 1422 1422 1422 1422 1422 1422 1421 1419 1418
1425 1425 1425 1425 1425 1425 1425 1425 1425 1425 1425 1425 1425 1425 1425 1425 1425 1424 1424 1423 1422 1422 1422 1421 1421 1421 1421 1421 1421 1421 1421 1421 1421 1421 1419 1419 1419 1419 1419 1419 1418 1417 1416
1421 1421 1421 1421 1421 1421 1422 1421 1421 1421 1421 1421 1421 1421 1421 1421 1421 1421 1420 1420 1419 1419 1418 1418 1418 1418 1418 1418 1417 1417 1417 1417 1417 1417 1417 1416 1417 1417 1417 1417 1416 1414 1413
1418 1418 1418 1418 1418 1418 1417 1417 1417 1417 1417 1417 1418 1418 1418 1417 1418 1417 1417 1416 1416 1415 1415 1415 1415 1415 1415 1415 1414 1413 1413 1413 1414 1414 1414 1413 1414 1414 1414 1413 1412 1411 1409
1414 1414 1414 1414 1414 1414 1414 1414 1414 1414 1414 1414 1414 1414 1414 1414 1414 1414 1414 1413 1412 1412 1412 1412 1412 1412 1412 1412 1411 1410 1410 1409 1410 1410 1410 1410 1411 1411 1411 1411 1410 1408 1407
1411 1411 1411 1411 1411 1410 1411 1411 1411 1411 1411 1411 1411 1411 1411 1410 1410 1410 1410 1410 1409 1409 1409 1408 1408 1409 1409 1409 1409 1408 1407 1407 1407 1407 1407 1407 1407 1407 1407 1407 1407 1406 1405
1408 1408 1408 1408 1407 1407 1407 1407 1407 1408 1407 1407 1407 1407 1407 1407 1407 1407 1407 1407 1407 1406 1406 1405 1406 1406 1407 1407 1406 1406 1406 1405 1404 1404 1404 1403 1403 1404 1404 1404 1403 1403 1402
1405 1405 1405 1404 1405 1405 1404 1404 1404 1404 1404 1404 1404 1404 1404 1404 1404 1404 1404 1404 1404 1404 1403 1403 1404 1404 1404 1404 1404 1404 1403 1403 1402 1401 1401 1401 1401 1401 1401 1400 1400 1399 1399
1402 1402 1402 1402 1402 1402 1401 1401 1401 1401 1401 1401 1401 1400 1400 1400 1401 1401 1401 1401 1401 1401 1401 1401 1401 1401 1402 1402 1402 1401 1401 1401 1400 1399 1399 1399 1399 1398 1398 1397 1397 1396 1395
1400 1400 1399 1399 1399 1399 1399 1399 1399 1399 1399 1399 1398 1398 1398 1397 1398 1398 1398 1397 1397 1398 1398 1398 1398 1398 1399 1399 1399 1399 1399 1399 1398 1397 1397 1397 1396 1396 1395 1395 1394 1393 1392
1397 1397 1397 1397 1397 1396 1396 1396 1396 1396 1396 1396 1396 1396 1395 1396 1395 1395 1395 1395 1395 1395 1396 1395 1395 1396 1396 1396 1396 1396 1396 1396 1396 1395 1395 1395 1394 1394 1393 1393 1392 1391 1389
1394 1394 1394 1394 1394 1393 1393 1393 1393 1393 1393 1393 1393 1393 1393 1393 1393 1392 1392 1393 1393 1393 1393 1393 1393 1394 1394 1394 1394 1394 1394 1395 1394 1394 1393 1393 1392 1392 1391 1390 1389 1389 1387
1391 1391 1391 1391 1391 1391 1391 1391 1391 1390 1390 1390 1390 1390 1389 1390 1390 1390 1390 1390 1390 1390 1390 1391 1391 1392 1392 1392 1392 1392 1392 1393 1392 1392 1391 1391 1390 1389 1389 1388 1387 1387 1385
1388 1388 1388 1388 1388 1388 1388 1388 1388 1388 1387 1387 1387 1387 1387 1386 1387 1387 1387 1387 1387 1387 1388 1388 1389 1390 1390 1390 1391 1391 1390 1390 1390 1390 1389 1389 1388 1388 1387 1386 1385 1385 1384
1385 1385 1385 1385 1385 1385 1385 1385 1385 1385 1384 1384 1384 1384 1384 1384 1384 1384 1384 1385 1385 1385 1386 1386 1387 1387 1388 1388 1388 1388 1388 1388 1388 1388 1387 1387 1387 1386 1385 1384 1384 1383 1381
1383 1383 1383 1383 1383 1383 1383 1383 1382 1382 1382 1381 1381 1382 1381 1381 1381 1381 1382 1382 1382 1383 1383 1384 1384 1384 1385 1385 1386 1386 1386 1386 1385 1385 1385 1385 1385 1384 1384 1383 1382 1381 1380
1380 1380 1380 1380 1380 1380 1380 1380 1380 1380 1379 1379 1379 1379 1379 1379 1379 1379 1379 1379 1380 1380 1381 1381 1381 1382 1382 1383 1383 1383 1383 1383 1383 1383 1383 1383 1383 1382 1382 1381 1380 1380 1379
1377 1377 1377 1377 1378 1378 1378 1377 1377 1377 1377 1377 1377 1377 1377 1377 1377 1377 1377 1377 1377 1378 1378 1378 1379 1379 1379 1380 1380 1380 1380 1380 1380 1381 1380 1380 1380 1380 1380 1379 1378 1378 1377
1375 1375 1375 1375 1375 1375 1375 1375 1375 1375 1375 1375 1375 1375 1375 1375 1375 1375 1375 1375 1375 1375 1375 1376 1376 1376 1376 1377 1377 1377 1378 1378 1378 1378 1378 1378 1378 1378 1378 1377 1377 1376 1376
1373 1372 1372 1372 1372 1372 1372 1372 1372 1372 1372 1372 1372 1372 1372 1372 1372 1373 1373 1373 1373 1373 1373 1373 1373 1373 1373 1374 1374 1374 1375 1375 1375 1375 1376 1376 1376 1376 1375 1375 1375 1374 1374
1370 1370 1370 1370 1370 1370 1370 1370 1370 1370 1370 1370 1370 1370 1370 1370 1370 1370 1370 1370 1370 1370 1370 1370 1370 1370 1371 1371 1371 1371 1372 1372 1373 1373 1373 1373 1373 1373 1373 1373 1373 1373 1373